[ ตารางข้อมูล ] [ Min-Max ] [ วันนี้2 ] [ วันนี้4 ] [ เทียบ-A 3วัน ] [ เทียบ-B 4วัน ]   

วันนี้2   [ ◀ ช่วงเก่ากว่า ] [ ช่วงที่ 20 ] [ ช่วงใหม่กว่า ▶ ] [ ล่าสุด ]    [ 3 ชั่วโมง ] [ 6 ชั่วโมง ] [ 12 ชั่วโมง ] [ 24 ชั่วโมง ]   วันนี้2

อุณภูมิในตู้ Knockdown4529  ราย 6 ชั่วโมง  ที่วัดได้ ในช่วงวันเวลา 26/08/2026 (20:58) ถึง 27/08/2026 (02:58) 
ความชื้นในตู้ Knockdown4529  ราย 6 ชั่วโมง  ที่วัดได้ ในช่วงวันเวลา 26/08/2026 (20:58) ถึง 27/08/2026 (02:58) 
การใช้ไฟฟ้าในตู้ Knockdown4529  ราย 6 ชั่วโมง  ที่วัดได้ ในช่วงวันเวลา 26/08/2026 (20:58) ถึง 27/08/2026 (02:58) 

  DS18B20SHTC3PZEM-004TWiFi 
IDDate d/m/Y & Timedata1
สูง
data2
ต่ำ
data3
นอก
temp
pcb
hum
pcb
VoltAmpWattrssiTime
 16342  27/08/2026 02:58:46  29.5  29.6  26.6  30.4  67.1  231.0  0.04  4.5  -82  02:58 
 16341  27/08/2026 02:54:03  29.5  29.6  26.7  30.5  67.0  234.4  0.04  4.5  -83  02:54 
 16340  27/08/2026 02:49:19  29.6  29.6  26.7  30.4  66.9  233.0  0.04  4.5  -82  02:49 
 16339  27/08/2026 02:44:35  29.6  29.7  26.7  30.6  66.9  232.7  0.04  4.5  -82  02:44 
 16338  27/08/2026 02:39:52  29.6  29.7  26.8  30.6  67.0  231.1  0.04  4.5  -82  02:39 
 16337  27/08/2026 02:35:07  29.6  29.7  26.5  30.6  67.0  232.0  0.04  4.5  -82  02:35 
 16336  27/08/2026 02:30:23  29.6  29.8  26.5  30.5  67.0  229.7  0.04  4.5  -82  02:30 
 16335  27/08/2026 02:25:40  29.6  29.8  26.7  30.8  67.0  231.2  0.04  4.5  -83  02:25 
 16334  27/08/2026 02:20:54  29.7  29.8  26.4  30.6  66.9  229.9  0.04  4.5  -82  02:20 
 16333  27/08/2026 02:16:11  29.7  29.8  26.4  30.5  66.7  229.8  0.04  4.5  -83  02:16 
 16332  27/08/2026 02:11:28  29.7  29.8  26.5  30.7  66.9  229.6  0.04  4.5  -82  02:11 
 16331  27/08/2026 02:06:44  29.8  29.9  26.6  30.6  66.8  229.3  0.04  4.6  -81  02:06 
 16330  27/08/2026 02:02:01  29.8  29.9  26.9  30.6  66.8  229.7  0.04  4.6  -82  02:02 
 16329  27/08/2026 01:57:17  29.8  29.9  26.7  30.8  66.9  229.2  0.04  4.5  -82  01:57 
 16328  27/08/2026 01:52:34  29.8  29.9  27.0  30.7  66.8  230.8  0.04  4.5  -81  01:52 
 16327  27/08/2026 01:47:49  29.8  29.9  27.0  30.7  66.8  227.7  0.04  4.5  -81  01:47 
 16326  27/08/2026 01:43:06  29.9  29.9  27.1  30.9  66.7  229.3  0.04  4.5  -82  01:43 
 16325  27/08/2026 01:38:23  29.9  29.9  27.0  30.8  66.8  228.8  0.04  4.5  -82  01:38 
 16324  27/08/2026 01:33:38  29.9  30.0  27.0  30.8  66.7  228.9  0.04  4.5  -79  01:33 
 16323  27/08/2026 01:28:55  29.9  30.0  26.9  30.8  66.8  229.3  0.04  4.5  -83  01:28 
 16322  27/08/2026 01:24:11  29.9  30.0  27.0  31.0  66.8  229.3  0.04  4.5  -82  01:24 
 16321  27/08/2026 01:19:28  30.0  30.1  27.0  30.9  66.7  229.4  0.04  4.5  -82  01:19 
 16320  27/08/2026 01:14:45  30.0  30.1  27.0  31.0  66.8  230.6  0.04  4.5  -82  01:14 
 16319  27/08/2026 01:10:01  30.0  30.1  27.1  31.0  66.9  228.4  0.04  4.5  -82  01:10 

Data every 5 minute.


ใช้เวลาประมวลผล 0.02269 วินาที